フルス彗星

C/2017 U2 ( Fuls )

English version
Home page
Updated on October 30, 2017

---------------------------------------------------------------------

・ プロフィール

発見日 2017年10月22日
発見光度 21.2等
発見者 D. C. Fuls (Mount Lemmon)

・ 軌道要素

Epoch 2017 Sept. 4.0 TT = JDT 2458000.5
T 2017 Sept. 3.01108 TT                                 MPCW
q   6.7003262            (2000.0)            P               Q
z  +0.0002864      Peri.  148.20287     +0.75905207     +0.41476715
 +/-0.0002170      Node   149.73222     -0.56241398     +0.02952452
e   0.9980808      Incl.   95.40018     +0.32791838     -0.90944847
From 34 observations 2017 Sept. 8-Oct. 27, mean residual 0".3.

・ 光度変化

        m1 = 8.5 + 5 logΔ + 10.0 log r

---------------------------------------------------------------------

軌道要素はM.P.E.C. 2017-U239に掲載されたものです。
光度グラフはComet for Windowsで作成したものです。

---------------------------------------------------------------------

Copyright(C) Seiichi Yoshida (comet@aerith.net). All rights reserved.